Misión y Visión

La misión es proporcionar información fiable a la navegación aérea, contribuyendo a la seguridad, regularidad y eficiencia de la Navegación Aérea Internacional

La visión es contribuir sustancialmente al desarrollo de conocimientos y a la utilización de la meteorología aeronáutica a nivel nacional e internacional, mediante la innovación y la coparticipación con sectores sociales y productivos de la sociedad.

 
  Inicio
  Metar
  Taf
  Wintemp
  SIGMET
  Avisos
  Pronósticos
  Carpeta Meteorologica
  Imágenes Satelitales
  Climatología Aeronáutica
   
  ¿Quienes Somos?
  Contacto
  Eventos
Taf

 

IMÁGENES DEL AEROPUERTO
(EN CONSTRUCCION)

 

PRONOSTICO DE AERÓDROMO
TAF / PROYECCION CLIMATICA
MES DE JULIO

 

AEROPUERTO ENRIQUE MALEK:

TAF MPSM 281700Z 2818/2924 19008KT 9999 SCT020 SCT090 PROB30 TEMPO 2821/2901 7000 -TSRA SCT015CB BKN090 TEMPO 2907/2911 00000KT=


TAF:

TAF MPDA 281700Z 2818/2906 19008KT 9999 SCT017 SCT090 PROB30 TEMPO 2820/2823 6000 TSRA SCT015CB BKN090 TEMPO 2901/2905 00000KT=

 

AEROPUERTO PANAMA PACIFICO:

hola



TAF:



AEROPUERTO MARCOS A. GELABERT:

TAF MPMG 281700Z 2818/2906 18006KT 9999 SCT020 SCT090 PROB30 TEMPO 2820/2823 7000 -TSRA SCT016CB BKN090 TEMPO 2901/2905 00000KT=



TAF:



AEROPUERTO INTL. DE TOCUMEN:

TAF MPPA 281700Z 2818/2924 22006KT 9999 SCT018 SCT090 PROB30 TEMPO 2820/2823 7000 -TSRA SCT015CB BKN090 TEMPO 2907/2911 00000KT=



TAF:

TAF MPTO 281700Z 2818/2924 18006KT 9999 SCT018 SCT100 PROB30 TEMPO 2819/2823 7000 -TSRA SCT015CB BKN090 TEMPO 2906/2910 00000KT =


 
 





























  Noticias AAC
  Directorio
  Contáctenos
  Historia
  Quejas y Sugerencias
  Etica y Transparencia

  Gestión SSP/SMS
  Seguridad Aérea
  Navegación Aérea
  Transporte Aéreo

  Tramites
  Áeronaves de Alquiler

  Meteorología
  I.S.F.P.A
  Notam
  Peligro Aviario
  AVSEC
  UPIA
  Permisos
 




DECLARACIÓN DE PRIVACIDAD